Location: *
(49.9853°N, 3.5569°E)
Time: 05:01:11
(UTC+00:00)

Cosmos 405 Rocket - Pass Details

Date: 15 December 2019
Orbit: 490 x 554 km, 81.3° (Epoch: 20 January)

Event Time Altitude Azimuth Distance (km) Brightness Sun altitude
Rises 16:44:43 0° 1° (N) 2,583 6.0 -9.2°
Reaches altitude 10° 16:47:28 10° 23° (NNE) 1,697 4.9 -9.6°
Maximum altitude 16:49:54 17° 64° (ENE) 1,339 4.1 -9.9°
Drops below altitude 10° 16:52:20 10° 106° (ESE) 1,698 4.9 -10.3°
Sets 16:55:05 0° 128° (SE) 2,584 6.0 -10.7°
